Morrisville, VT

12:08 PM EST on December 12, 2019 (GMT -0500)
Morrisville Stowe State

Weather History for KMVL - August, 2019

Change the Weather History Date:

Monday, August 12, 2019

  Actual Average Record
Temperature  
Mean Temperature 70 °F 66 °F  
Max Temperature 80 °F 78 °F 89 °F (2002)
Min Temperature 59 °F 54 °F 44 °F (1996)
Degree Days  
Heating Degree Days 0 2  
Month to date heating degree days 17 19  
Since 1 June heating degree days 170 172  
Since 1 July heating degree days 27 49  
Cooling Degree Days 5 3  
Month to date cooling degree days 23 36  
Year to date cooling degree days 205 204  
Since 1 June cooling degree days 204 196  
Growing Degree Days 20 (Base 50)    
Moisture  
Dew Point 59 °F    
Average Humidity 69    
Maximum Humidity 93    
Minimum Humidity 45    
Precipitation  
Precipitation 0.06 in 0.13 in 1.80 in (2004)
Month to date precipitation 1.55 1.68  
Year to date precipitation 24.99 21.41  
Sea Level Pressure  
Sea Level Pressure 29.86 in    
Wind  
Wind Speed 5 mph (SSW)    
Max Wind Speed 14 mph    
Max Gust Speed 21 mph    
Visibility 10 miles    
Events      
T = Trace of Precipitation, MM = Missing Value Source: NWS Daily Summary

Daily Weather History Graph

Daily Weather History Graph

Search for Another Location

Airport or City:

Astronomy

Aug. 12, 2019 Rise Set
Actual Time 5:49 AM EDT 8:00 PM EDT
Civil Twilight 5:17 AM EDT 8:32 PM EDT
Nautical Twilight 4:37 AM EDT 9:12 PM EDT
Astronomical Twilight 3:53 AM EDT 9:55 PM EDT
Moon 6:34 PM EDT 2:50 AM EDT
Length of Visible Light 15h 15m
Length of Day
14h 11m
Waxing Gibbous, 93% of the Moon is Illuminated
Aug 12
Waxing Gibbous
Aug 15
Full
Aug 23
Last Quarter
Aug 30
New
Sep 5
First Quarter

Hourly Weather History & Observations

Time (EDT) Temp. Dew Point Humidity Pressure Visibility Wind Dir Wind Speed Gust Speed Precip Events Conditions
12:54 AM 60.1 °F 55.9 °F 86% 29.93 in 10.0 mi Calm Calm - N/A   Partly Cloudy
1:54 AM 60.1 °F 55.9 °F 86% 29.92 in 10.0 mi South 3.5 mph - N/A   Overcast
2:54 AM 61.0 °F 55.9 °F 83% 29.92 in 10.0 mi Variable 4.6 mph - N/A   Mostly Cloudy
3:54 AM 62.1 °F 55.0 °F 78% 29.91 in 10.0 mi South 5.8 mph - N/A   Clear
4:54 AM 66.0 °F 55.0 °F 68% 29.92 in 10.0 mi SSW 5.8 mph - N/A   Clear
5:54 AM 61.0 °F 55.0 °F 81% 29.91 in 10.0 mi SW 4.6 mph - N/A   Clear
6:54 AM 63.0 °F 55.0 °F 75% 29.92 in 10.0 mi SSW 6.9 mph - N/A   Clear
7:54 AM 68.0 °F 57.0 °F 68% 29.91 in 10.0 mi SSW 8.1 mph - N/A   Partly Cloudy
8:54 AM 72.0 °F 57.9 °F 61% 29.91 in 10.0 mi SSW 8.1 mph - N/A   Clear
9:54 AM 73.0 °F 57.9 °F 59% 29.91 in 10.0 mi SW 4.6 mph - N/A   Mostly Cloudy
10:54 AM 73.0 °F 60.1 °F 64% 29.90 in 10.0 mi Calm Calm - N/A   Mostly Cloudy
11:54 AM 77.0 °F 57.9 °F 52% 29.88 in 10.0 mi Variable 5.8 mph - N/A   Mostly Cloudy
12:54 PM 78.1 °F 59.0 °F 52% 29.86 in 10.0 mi SSW 10.4 mph - N/A   Clear
1:54 PM 78.1 °F 55.9 °F 46% 29.86 in 10.0 mi SSW 10.4 mph - N/A   Mostly Cloudy
2:54 PM 79.0 °F 59.0 °F 50% 29.83 in 10.0 mi SSW 5.8 mph - N/A   Clear
3:54 PM 78.1 °F 60.1 °F 54% 29.83 in 10.0 mi SSW 5.8 mph - N/A   Clear
4:54 PM 78.1 °F 59.0 °F 52% 29.82 in 10.0 mi SW 8.1 mph - N/A   Partly Cloudy
5:54 PM 77.0 °F 60.1 °F 56% 29.80 in 10.0 mi SSW 3.5 mph - N/A   Clear
6:54 PM 75.9 °F 62.1 °F 62% 29.79 in 10.0 mi South 3.5 mph - N/A   Mostly Cloudy
7:54 PM 68.0 °F 64.0 °F 87% 29.79 in 10.0 mi Calm Calm - N/A   Scattered Clouds
8:54 PM 66.9 °F 64.0 °F 90% 29.79 in 10.0 mi Calm Calm - N/A   Mostly Cloudy
9:54 PM 66.9 °F 63.0 °F 87% 29.78 in 10.0 mi South 4.6 mph - N/A   Mostly Cloudy
10:54 PM 69.1 °F 62.1 °F 78% 29.78 in 10.0 mi NE 4.6 mph - N/A   Overcast
11:54 PM 68.0 °F 63.0 °F 84% 29.79 in 10.0 mi NNE 5.8 mph - N/A   Overcast